Regional Weather Roundup
Issued by NWS

Home | Current Version | Previous Version | Graphics & Text | Print | Product List | Glossary On
Versions: 1 2 3 4 5 6 7 8 9 10 11 12 13 14 15 16 17 18 19 20 21 22 23 24 25 26 27 28 29 30 31 32 33 34 35 36 37 38 39 40 41 42 43 44 45 46 47 48 49 50
000
ASUS43 KOAX 191410
RWRNE

WEATHER ROUNDUP FOR NEBRASKA
NATIONAL WEATHER SERVICE OMAHA NE
900 AM CDT SAT APR 19 2014

NOTES: SATELLITE DATA IS BEING USED TO AUGMENT CLOUD COVER ABOVE
       12000 FEET.
       "FAIR" INDICATES FEW OR NO CLOUDS BELOW 12,000 FEET WITH NO
       SIGNIFICANT WEATHER AND/OR OBSTRUCTIONS TO VISIBILITY.

  * THESE STATIONS DO NOT REPORT WEATHER SUCH AS RAIN...SNOW OR FOG.

NEZ001>004-019>022-054>056-191500-
NEBRASKA PANHANDLE

CITY           SKY/WX    TMP DP  RH WIND       PRES   REMARKS
SCOTTSBLUFF    CLOUDY    49  38  65 CALM      30.05R
ALLIANCE       CLOUDY    45  36  70 N7        30.03R
CHADRON        CLOUDY    47  38  71 CALM      30.04R
KIMBALL        CLOUDY    46  33  62 NE13      30.02S
SIDNEY         CLOUDY    48  37  65 NE17      30.03R
$$

NEZ057>060-069>072-079>082-191500-
SOUTHWEST NEBRASKA

CITY           SKY/WX    TMP DP  RH WIND       PRES   REMARKS
NORTH PLATTE   PTSUNNY   54  46  74 E5        29.96R
IMPERIAL       MOSUNNY   48  44  86 N10       29.94R
LEXINGTON      MOSUNNY   55  48  76 SE6       29.96S
MCCOOK         CLOUDY    54  48  80 E5        29.93R
OGALLALA       CLOUDY    53  39  60 NE22G29   29.98R
$$

NEZ005>010-023>029-035>040-094-191500-
NORTH CENTRAL NEBRASKA

CITY           SKY/WX    TMP DP  RH WIND       PRES   REMARKS
VALENTINE      CLOUDY    50  36  58 NW6       30.01R
AINSWORTH      CLOUDY    51  39  64 N9        30.01R
BROKEN BOW     MOSUNNY   54  47  77 S5        29.97R
O`NEILL        MOSUNNY   57  41  54 N10       29.99R
ORD            MOSUNNY   55  46  71 S6        29.97S
THEDFORD       CLOUDY    52  38  59 N12       30.00R
$$

NEZ041-046>049-061>064-073>077-083>087-191500-
SOUTH CENTRAL NEBRASKA

CITY           SKY/WX    TMP DP  RH WIND       PRES   REMARKS
GRAND ISLAND   PTSUNNY   59  46  62 S13       30.01R
AURORA         PTSUNNY   59  46  62 SW12G20   30.02R
HASTINGS       PTSUNNY   59  45  59 S13G23    29.99R
HEBRON         PTSUNNY   59  45  59 S22G28    30.01S
HOLDREGE       PTSUNNY   57  47  69 S12G17    29.97R
KEARNEY *      PTSUNNY   54  46  76 S6        29.99R
YORK           MOSUNNY   59  45  58 S20G28    30.02R
$$

NEZ011>018-030>034-042>045-191500-
NORTHEAST NEBRASKA

CITY           SKY/WX    TMP DP  RH WIND       PRES   REMARKS
NORFOLK        PTSUNNY   57  42  57 S7        30.01R
ALBION         MOSUNNY   57  43  59 S9        30.00F
BLAIR          PTSUNNY   60  41  49 S15G21    30.07R
COLUMBUS *     MOSUNNY   57  43  58 S12       30.02F
FREMONT        MOSUNNY   59  41  51 S15       30.05R
TEKAMAH        MOSUNNY   63  41  44 S18       30.06R
$$

NEZ050>053-065>068-078-088>093-191500-
SOUTHEAST NEBRASKA

CITY           SKY/WX    TMP DP  RH WIND       PRES   REMARKS
LINCOLN        MOSUNNY   61  42  49 S17       30.03R
OMAHA EPPLEY   PTSUNNY   59  41  51 S16       30.07R
BEATRICE       PTSUNNY   60  43  53 S14       30.04R
FALLS CITY     MOSUNNY   61  44  53 S13       30.10F
NEBRASKA CITY  PTSUNNY   60  42  51 S17G24    30.07S
PLATTSMOUTH    PTSUNNY   60  40  46 S16G24    30.07R
$$

NEZ044-045-051>053-067-191500-
OMAHA AREA

CITY           SKY/WX    TMP DP  RH WIND       PRES   REMARKS
OMAHA EPPLEY   PTSUNNY   59  41  51 S16       30.07R
BLAIR          PTSUNNY   60  41  49 S15G21    30.07R
FREMONT        MOSUNNY   59  41  51 S15       30.05R
MILLARD        PTSUNNY   59  42  52 SE10G20   30.06R
OFFUTT AFB     PTSUNNY   60  43  53 S14       30.07R
PLATTSMOUTH    PTSUNNY   60  40  46 S16G24    30.07R
WAHOO          FAIR      60  41  49 S9        30.06R
$$



USA.gov is the U.S. government's official web portal to all federal, state and local government web resources and services.